Flight Track Log - Related Links

Times and Time Zones

All times are in EDT time to prevent confusion due to time zone crossing. See the SKW4664 flight status page for this flight to view local times or setup timezone preferences in your user account.

Time Position Orientation Groundspeed Altitude Reporting Facility
EDT Latitude Longitude Course Direction KTS MPH feet Rate Location/Type
Sun 12:03:06 PM 43.5697 -96.6614 81° East 243 280 3,900  Level Minneapolis Center
Sun 12:04:07 PM 43.6158 -96.5794 52° Northeast 262 302 6,400 2,311 Climbing Minneapolis Center
Sun 12:05:00 PM 43.8416 -96.2544 53° Northeast  Level FlightAware Approximate
Sun 12:05:08 PM 43.6686 -96.4908 51° Northeast 281 323 8,600  Level Minneapolis Center
Sun 12:06:00 PM 43.9086 -96.1314 53° Northeast  Level FlightAware Approximate
Sun 12:06:10 PM 43.7272 -96.3953 50° Northeast 304 350 11,300  Level Minneapolis Center
Sun 12:07:00 PM 43.9766 -96.0091 52° Northeast  Level FlightAware Approximate
Sun 12:07:11 PM 43.7850 -96.2969 51° Northeast 319 367 13,700  Level Minneapolis Center
Sun 12:08:12 PM 43.8467 -96.1947 50° Northeast 343 395 15,500 2,000 Climbing Minneapolis Center
Sun 12:09:14 PM 43.9231 -96.0658 51° Northeast 362 417 17,800 1,805 Climbing Minneapolis Center
Sun 12:10:15 PM 43.9861 -95.9583 51° Northeast 364 419 19,200 934 Climbing Minneapolis Center
Sun 12:11:16 PM 44.0394 -95.8261 61° Northeast 395 455 19,700 448 Climbing Minneapolis Center
Sun 12:12:29 PM 44.0967 -95.6853 60° Northeast 418 481 20,200 578 Climbing Minneapolis Center
Sun 12:13:31 PM 44.1681 -95.5064 61° Northeast 438 504 21,000 390 Climbing Minneapolis Center
Sun 12:14:32 PM 44.2289 -95.3553 61° Northeast 447 514 21,000  Level Minneapolis Center
Sun 12:15:34 PM 44.3006 -95.1722 61° Northeast 450 518 21,000  Level Minneapolis Center
Sun 12:16:35 PM 44.3597 -95.0203 61° Northeast 447 514 21,000  Level Minneapolis Center
Sun 12:17:36 PM 44.4208 -94.8694 60° Northeast 448 516 21,000  Level Minneapolis Center
Sun 12:18:37 PM 44.4800 -94.7172 61° Northeast 448 516 21,000 -634 Level Minneapolis Center
Sun 12:19:39 PM 44.5311 -94.5833 62° Northeast 442 509 19,700 -2,488 Descending Minneapolis Center
Sun 12:20:40 PM 44.5964 -94.4106 62° Northeast 421 484 15,900 -3,450 Descending Minneapolis Center
Sun 12:20:59 PM 44.6156 -94.3747 53° Northeast 415 478 15,100 -2,526 Descending FAA TRACON SMA TRACON (SMA)
Sun 12:21:18 PM 44.6314 -94.3319 63° Northeast 407 468 14,300 -2,923 Descending FAA TRACON SMA TRACON (SMA)
Sun 12:21:38 PM 44.6503 -94.2789 63° Northeast 398 458 13,200 -3,000 Descending FAA TRACON SMA TRACON (SMA)
Sun 12:21:58 PM 44.6681 -94.2381 59° Northeast 394 453 12,300 -2,700 Descending FAA TRACON SMA TRACON (SMA)
Sun 12:22:18 PM 44.6831 -94.1964 63° Northeast 391 450 11,400 -1,902 Descending FAA TRACON SMA TRACON (SMA)
Sun 12:22:39 PM 44.6981 -94.1422 69° East 386 444 11,000 -600 Descending FAA TRACON SMA TRACON (SMA)
Sun 12:22:58 PM 44.7083 -94.0986 72° East 383 441 11,000  Level FAA TRACON SMA TRACON (SMA)
Sun 12:23:18 PM 44.7164 -94.0547 76° East 379 436 11,000 -450 Level FAA TRACON SMA TRACON (SMA)
Sun 12:23:38 PM 44.7361 -94.0094 58° Northeast 363 418 10,700 -878 Descending FAA TRACON SMA TRACON (SMA)
Sun 12:23:59 PM 44.7525 -93.9761 55° Northeast 345 397 10,400 -1,024 Descending FAA TRACON SMA TRACON (SMA)
Sun 12:24:19 PM 44.7683 -93.9444 55° Northeast 328 377 10,000 -1,256 Descending FAA TRACON SMA TRACON (SMA)
Sun 12:24:42 PM 44.7881 -93.9058 54° Northeast 317 365 9,500 -1,535 Descending FAA TRACON SMA TRACON (SMA)
Sun 12:25:02 PM 44.8067 -93.8683 55° Northeast 308 354 8,900 -1,667 Descending FAA TRACON SMA TRACON (SMA)
Sun 12:25:18 PM 44.8189 -93.8458 53° Northeast 307 353 8,500 -1,667 Descending FAA TRACON SMA TRACON (SMA)
Sun 12:25:38 PM 44.8372 -93.8086 55° Northeast 304 350 7,900 -1,463 Descending FAA TRACON SMA TRACON (SMA)
Sun 12:25:59 PM 44.8519 -93.7789 55° Northeast 302 348 7,500 -1,350 Descending FAA TRACON SMA TRACON (SMA)
Sun 12:26:18 PM 44.8664 -93.7503 55° Northeast 296 341 7,000 -923 Descending FAA TRACON SMA TRACON (SMA)
Sun 12:26:38 PM 44.8803 -93.7225 55° Northeast 287 330 6,900 -1,050 Descending FAA TRACON SMA TRACON (SMA)
Sun 12:26:58 PM 44.8975 -93.6883 55° Northeast 278 320 6,300 -1,610 Descending FAA TRACON SMA TRACON (SMA)
Sun 12:27:19 PM 44.9103 -93.6611 56° Northeast 274 315 5,800 -1,429 Descending FAA TRACON SMA TRACON (SMA)
Sun 12:27:40 PM 44.9269 -93.6267 56° Northeast 275 316 5,300 -1,500 Descending FAA TRACON SMA TRACON (SMA)
Sun 12:27:59 PM 44.9400 -93.5983 57° Northeast 279 321 4,800 -1,538 Descending FAA TRACON SMA TRACON (SMA)
Sun 12:28:19 PM 44.9544 -93.5697 54° Northeast 286 329 4,300 -1,200 Descending FAA TRACON SMA TRACON (SMA)
Sun 12:28:39 PM 44.9731 -93.5336 54° Northeast 294 338 4,000 -450 Descending FAA TRACON SMA TRACON (SMA)
Sun 12:28:59 PM 44.9825 -93.5047 65° Northeast 281 323 4,000  Level FAA TRACON SMA TRACON (SMA)
Sun 12:29:19 PM 44.9856 -93.4758 81° East 252 290 4,000  Level FAA TRACON SMA TRACON (SMA)
Sun 12:29:39 PM 44.9833 -93.4486 97° East 235 270 4,000  Level FAA TRACON SMA TRACON (SMA)
Sun 12:29:59 PM 44.9736 -93.4214 117° Southeast 205 236 4,000 -300 Level FAA TRACON SMA TRACON (SMA)
Sun 12:30:19 PM 44.9656 -93.4036 123° Southeast 181 208 3,800 -900 Descending FAA TRACON SMA TRACON (SMA)
Sun 12:30:39 PM 44.9542 -93.3833 128° Southeast 171 197 3,400 -1,050 Descending FAA TRACON SMA TRACON (SMA)
Sun 12:30:59 PM 44.9456 -93.3678 128° Southeast 165 190 3,100 -750 Descending FAA TRACON SMA TRACON (SMA)
Sun 12:31:19 PM 44.9386 -93.3533 124° Southeast 151 174 2,900 -600 Descending FAA TRACON SMA TRACON (SMA)

Login

Don't have an account? Register now (free) for customized features, flight alerts, and more!